Simultaneous Nadir Overpasses (SNOs) Predictions

Prediction of SNOs between AQUA and NPP Satellite Orbit:

Table of predicted SNOs for the next 14.0 days since TLE Epoch: 11/28/2015
Index Date (AQUA) Time (AQUA) Lat,Lon (AQUA) SZA (AQUA ) Date (NPP) Time (NPP) Lat,Lon (NPP) SZA (NPP ) Distance(km) Time Diff (sec)
1 11/30/2015 03:58:36 58.15, -22.44 133.54 11/30/2015 03:57:23 58.27, -23.25 133.95 49.54 73
2 11/30/2015 04:43:20 -74.08, 163.24 60.44 11/30/2015 04:43:17 -74.09, 163.30 60.46 1.82 3
3 11/30/2015 05:32:01 76.30, -23.07 117.29 11/30/2015 05:33:15 76.25, -22.98 117.22 5.77 74
4 12/02/2015 20:10:49 72.67, 108.54 121.40 12/02/2015 20:09:53 72.68, 108.58 121.45 1.26 56
5 12/02/2015 20:59:45 -74.34, -80.27 60.24 12/02/2015 21:00:06 -74.34, -80.30 60.25 0.80 21
6 12/05/2015 12:27:07 73.29,-134.36 121.22 12/05/2015 12:26:35 73.29,-134.35 121.25 0.41 32
7 12/05/2015 13:16:06 -74.79, 36.69 60.27 12/05/2015 13:16:51 -74.78, 36.64 60.30 1.52 45
8 12/08/2015 04:43:21 74.08, -16.76 120.81 12/08/2015 04:43:13 74.09, -16.71 120.81 1.50 8
9 12/08/2015 05:32:23 -75.40, 154.21 60.53 12/08/2015 05:33:32 -75.40, 154.20 60.60 0.24 69
10 12/10/2015 20:10:53 -72.56, -71.67 57.38 12/10/2015 20:09:53 -72.56, -71.68 57.31 0.09 60




NCC Satellite Simultaneous Nadir Overpasses (SNOs) Prediction Service
